Location: Unspecified
(41.4500°N, 0.0000°E)
Time: 00:40:56
(UTC+00:00)

CZ-4 DEB - Visible Passes

Search period start: 05 April 2026 00:00
Search period end: 15 April 2026 00:00
Orbit: 707 x 862 km, 98.9° (Epoch: 25 March)

Date Brightness Start Highest point End Pass type
(mag) Time Alt. Az. Time Alt. Az. Time Alt. Az.
5 Apr ? 18:49:31 10° SSE 18:54:38 88° ENE 19:00:01 10° NNW visible
5 Apr ? 20:33:34 10° W 20:34:44 11° W 20:35:54 10° WNW visible
6 Apr ? 19:59:20 10° SW 20:03:16 22° W 20:07:21 10° NW visible
7 Apr ? 19:27:07 10° S 19:31:58 42° W 19:37:04 10° NNW visible
8 Apr ? 18:55:41 10° SSE 19:00:51 83° WSW 19:06:17 10° NNW visible
9 Apr ? 20:05:49 10° SW 20:09:33 20° W 20:13:24 10° NW visible
10 Apr ? 19:33:25 10° SSW 19:38:14 38° W 19:43:16 10° NNW visible
11 Apr ? 19:01:52 10° S 19:07:05 74° WSW 19:12:32 10° NNW visible
12 Apr ? 20:12:21 10° SW 20:15:50 18° W 20:19:26 10° NW visible
13 Apr ? 19:39:45 10° SSW 19:44:30 34° W 19:49:27 10° NNW visible
14 Apr ? 19:08:04 10° S 19:13:19 66° WSW 19:18:47 10° NNW visible
